Date,TemperatureHighF,TemperatureAvgF,TemperatureLowF,DewpointHighF,DewpointAvgF,DewpointLowF,HumidityHigh,HumidityAvg,HumidityLow,PressureMaxIn,PressureMinIn,WindSpeedMaxMPH,WindSpeedAvgMPH,GustSpeedMaxMPH,PrecipitationSumIn
2013-2-1,16.7,13.1,8.3,10.9,6.9,1.2,88,76,62,30.28,29.91,7,4,15,0.00
2013-2-2,19.2,12.9,3.0,14.9,8.4,0.3,88,82,74,30.22,30.02,5,2,12,0.00
2013-2-3,18.6,9.8,-1.5,13.5,5.1,-4.4,89,81,69,30.06,29.90,7,2,13,0.00
2013-2-4,21.1,15.8,9.1,14.8,11.1,4.5,87,81,74,30.07,29.93,2,0,6,0.00
2013-2-5,26.2,17.6,4.6,24.5,13.7,2.1,93,85,67,30.01,29.83,4,2,12,0.00
2013-2-6,29.1,21.4,9.5,19.0,14.4,6.9,91,75,60,30.31,30.02,3,1,8,0.00
2013-2-7,36.3,29.3,24.2,26.7,21.7,16.0,93,73,65,30.30,29.93,6,2,13,0.01
2013-2-8,27.0,23.0,13.0,25.8,20.1,10.1,95,89,71,30.39,29.86,5,2,10,0.00
2013-2-9,31.1,16.0,-2.1,18.7,9.9,-5.3,92,78,51,30.50,30.31,4,1,9,0.00
2013-2-10,39.0,29.4,16.9,35.9,23.3,14.5,92,79,57,30.31,29.68,6,3,15,0.35
2013-2-11,43.0,36.4,30.8,40.8,30.7,25.4,94,80,68,29.84,29.53,11,7,23,0.04
2013-2-12,30.6,28.4,26.0,25.2,22.4,20.6,82,78,71,30.05,29.85,7,4,16,0.00
2013-2-13,37.0,28.8,25.2,26.8,23.1,20.7,87,79,65,29.95,29.75,4,2,10,0.00
2013-2-14,39.4,33.3,28.2,33.1,29.3,24.7,91,85,77,29.85,29.66,9,4,20,0.00
2013-2-15,30.2,24.3,18.9,24.5,16.0,12.3,83,71,58,30.15,29.86,7,4,13,0.00
2013-2-16,22.8,18.4,15.1,17.1,12.4,6.4,90,78,55,30.13,30.02,5,1,11,0.00
2013-2-17,21.5,14.0,7.2,11.0,5.8,2.4,86,70,49,30.24,30.11,4,1,11,0.00
2013-2-18,45.3,29.8,12.9,36.1,19.4,6.5,75,65,54,30.24,29.58,7,4,16,0.00
2013-2-19,45.6,27.7,16.5,38.9,22.7,10.3,91,81,69,29.92,29.38,11,8,26,0.13
2013-2-20,21.3,18.0,14.1,14.0,10.7,7.5,81,73,64,30.29,29.93,8,6,19,0.00
2013-2-21,22.3,18.7,16.4,17.0,12.5,10.0,89,77,65,30.43,30.28,6,2,12,0.00
2013-2-22,32.0,25.7,19.9,30.1,22.9,16.7,95,89,81,30.31,29.90,6,3,13,0.00
2013-2-23,32.3,28.4,23.6,29.9,22.9,18.9,91,80,68,29.93,29.88,6,4,12,0.00
2013-2-24,35.6,26.9,20.7,26.6,22.3,18.7,92,83,65,30.18,29.91,5,2,10,0.00
2013-2-25,39.5,30.1,20.5,26.3,22.7,17.9,91,75,54,30.26,30.13,3,0,7,0.01
2013-2-26,34.5,29.8,25.0,30.5,25.4,20.8,96,84,71,30.16,29.56,9,5,20,0.16
2013-2-27,34.9,32.7,31.4,33.7,31.4,30.4,96,95,91,29.58,29.49,3,1,9,0.28
2013-2-28,33.9,31.1,27.4,31.1,28.4,22.9,97,90,81,30.01,29.57,3,1,10,0.10